Time,TemperatureF,DewpointF,PressureIn,WindDirection,WindDirectionDegrees,WindSpeedMPH,WindSpeedGustMPH,Humidity,HourlyPrecipIn,Conditions,Clouds,dailyrainin,SoftwareType,DateUTC
2013-02-11 00:00:00,45.0,40.5,30.29,NNE,30,3.0,6.0,75,0.00,,,0.00,meteohub,2013-02-11 08:00:00,
2013-02-11 00:06:00,45.0,40.5,30.28,NNE,30,3.0,5.0,75,0.00,,,0.00,meteohub,2013-02-11 08:06:00,
2013-02-11 00:11:00,44.8,40.5,30.28,NNE,30,0.0,6.0,75,0.00,,,0.00,meteohub,2013-02-11 08:11:00,
2013-02-11 00:16:00,44.8,40.5,30.29,NNE,30,1.0,6.0,75,0.00,,,0.00,meteohub,2013-02-11 08:16:00,
2013-02-11 00:21:00,44.8,40.5,30.29,NNE,30,0.0,6.0,75,0.00,,,0.00,meteohub,2013-02-11 08:21:00,
2013-02-11 00:26:00,44.8,40.5,30.28,NNE,31,0.0,7.0,75,0.00,,,0.00,meteohub,2013-02-11 08:26:00,
2013-02-11 00:32:00,44.8,40.5,30.28,NNE,31,0.0,7.0,75,0.00,,,0.00,meteohub,2013-02-11 08:32:00,
2013-02-11 00:37:00,44.8,40.5,30.29,NNE,31,1.0,6.0,75,0.00,,,0.00,meteohub,2013-02-11 08:37:00,
2013-02-11 00:42:00,44.8,40.5,30.29,NNE,31,2.0,6.0,75,0.00,,,0.00,meteohub,2013-02-11 08:42:00,
2013-02-11 00:47:00,44.6,40.5,30.29,NNE,31,1.0,2.0,75,0.00,,,0.00,meteohub,2013-02-11 08:47:00,
2013-02-11 00:52:00,44.4,40.5,30.29,NNE,31,0.0,5.0,75,0.00,,,0.00,meteohub,2013-02-11 08:52:00,
2013-02-11 00:57:00,44.4,40.5,30.28,NNE,31,0.0,5.0,75,0.00,,,0.00,meteohub,2013-02-11 08:57:00,
2013-02-11 01:03:00,44.4,40.3,30.28,NNE,31,0.0,5.0,75,0.00,,,0.00,meteohub,2013-02-11 09:03:00,
2013-02-11 01:08:00,44.4,40.3,30.28,NNE,31,0.0,5.0,75,0.00,,,0.00,meteohub,2013-02-11 09:08:00,
2013-02-11 01:13:00,44.4,40.3,30.28,NNE,31,0.0,4.0,75,0.00,,,0.00,meteohub,2013-02-11 09:13:00,
2013-02-11 01:18:00,44.4,40.3,30.27,NNE,31,0.0,3.0,75,0.00,,,0.00,meteohub,2013-02-11 09:18:00,
2013-02-11 01:23:00,44.4,40.3,30.28,NNE,31,0.0,3.0,75,0.00,,,0.00,meteohub,2013-02-11 09:23:00,
2013-02-11 01:28:00,44.4,40.3,30.28,NNE,31,0.0,3.0,75,0.00,,,0.00,meteohub,2013-02-11 09:28:00,
2013-02-11 01:34:00,44.4,40.3,30.28,NNE,31,0.0,0.0,75,0.00,,,0.00,meteohub,2013-02-11 09:34:00,
2013-02-11 01:39:00,44.4,40.3,30.28,NNE,31,0.0,0.0,75,0.00,,,0.00,meteohub,2013-02-11 09:39:00,
2013-02-11 01:44:00,44.2,40.3,30.29,NNE,31,0.0,0.0,75,0.00,,,0.00,meteohub,2013-02-11 09:44:00,
2013-02-11 01:49:00,44.2,40.3,30.29,NNE,31,0.0,2.0,75,0.00,,,0.00,meteohub,2013-02-11 09:49:00,
2013-02-11 01:54:00,44.4,40.3,30.29,NNE,31,0.0,4.0,75,0.00,,,0.00,meteohub,2013-02-11 09:54:00,
2013-02-11 02:00:00,44.2,40.3,30.29,NNE,31,0.0,4.0,75,0.00,,,0.00,meteohub,2013-02-11 10:00:00,
2013-02-11 02:05:00,44.2,40.3,30.29,NNE,31,0.0,4.0,75,0.00,,,0.00,meteohub,2013-02-11 10:05:00,
2013-02-11 02:10:00,44.2,40.3,30.29,NNE,31,0.0,0.0,75,0.00,,,0.00,meteohub,2013-02-11 10:10:00,
2013-02-11 02:15:00,44.2,40.3,30.29,NNE,31,0.0,0.0,75,0.00,,,0.00,meteohub,2013-02-11 10:15:00,
2013-02-11 02:20:00,44.2,40.3,30.29,NNE,31,0.0,0.0,75,0.00,,,0.00,meteohub,2013-02-11 10:20:00,
2013-02-11 02:25:00,44.2,40.3,30.29,NNE,31,0.0,0.0,75,0.00,,,0.00,meteohub,2013-02-11 10:25:00,
2013-02-11 02:31:00,44.2,40.3,30.29,NNE,31,0.0,0.0,75,0.00,,,0.00,meteohub,2013-02-11 10:31:00,
2013-02-11 02:36:00,44.2,40.3,30.29,NNE,31,0.0,0.0,75,0.00,,,0.00,meteohub,2013-02-11 10:36:00,
2013-02-11 02:41:00,44.2,40.3,30.29,NNE,31,0.0,0.0,75,0.00,,,0.00,meteohub,2013-02-11 10:41:00,
2013-02-11 02:46:00,44.2,40.3,30.29,NNE,31,2.0,0.0,75,0.00,,,0.00,meteohub,2013-02-11 10:46:00,
2013-02-11 02:51:00,44.1,40.3,30.29,NNE,31,0.0,3.0,75,0.00,,,0.00,meteohub,2013-02-11 10:51:00,
2013-02-11 02:56:00,44.1,40.3,30.29,NNE,31,0.0,3.0,75,0.00,,,0.00,meteohub,2013-02-11 10:56:00,
2013-02-11 03:02:00,44.2,40.3,30.29,NNE,31,0.0,3.0,75,0.00,,,0.00,meteohub,2013-02-11 11:02:00,
2013-02-11 03:07:00,44.2,40.3,30.29,NNE,31,0.0,4.0,75,0.00,,,0.00,meteohub,2013-02-11 11:07:00,
2013-02-11 03:12:00,44.2,40.3,30.29,NNE,31,0.0,4.0,75,0.00,,,0.00,meteohub,2013-02-11 11:12:00,
2013-02-11 03:17:00,44.2,40.3,30.29,NNE,31,0.0,2.0,75,0.00,,,0.00,meteohub,2013-02-11 11:17:00,
2013-02-11 03:22:00,44.1,40.3,30.29,NNE,31,0.0,2.0,75,0.00,,,0.00,meteohub,2013-02-11 11:22:00,
2013-02-11 03:28:00,44.1,40.3,30.29,NNE,31,0.0,0.0,75,0.00,,,0.00,meteohub,2013-02-11 11:28:00,
2013-02-11 03:33:00,44.1,40.3,30.29,NNE,31,0.0,0.0,75,0.00,,,0.00,meteohub,2013-02-11 11:33:00,
2013-02-11 03:38:00,44.1,40.3,30.29,NNE,31,0.0,1.0,75,0.00,,,0.00,meteohub,2013-02-11 11:38:00,
2013-02-11 03:43:00,44.1,40.3,30.29,NNE,31,3.0,3.0,75,0.00,,,0.00,meteohub,2013-02-11 11:43:00,
2013-02-11 03:48:00,44.1,40.3,30.29,NNE,31,0.0,5.0,75,0.00,,,0.00,meteohub,2013-02-11 11:48:00,
2013-02-11 03:53:00,44.1,40.3,30.30,NNE,31,0.0,5.0,75,0.00,,,0.00,meteohub,2013-02-11 11:53:00,
2013-02-11 03:58:00,44.1,40.3,30.30,NNE,31,0.0,5.0,75,0.00,,,0.00,meteohub,2013-02-11 11:58:00,
2013-02-11 04:03:00,44.1,40.3,30.30,NNE,31,0.0,5.0,75,0.00,,,0.00,meteohub,2013-02-11 12:03:00,
2013-02-11 04:08:00,44.1,40.3,30.30,NNE,31,4.0,4.0,75,0.00,,,0.00,meteohub,2013-02-11 12:08:00,
2013-02-11 04:13:00,44.1,40.3,30.30,NNE,31,4.0,4.0,75,0.00,,,0.00,meteohub,2013-02-11 12:13:00,
2013-02-11 04:18:00,44.2,40.3,30.30,NNE,31,0.0,7.0,75,0.00,,,0.00,meteohub,2013-02-11 12:18:00,
2013-02-11 04:23:00,44.2,40.3,30.30,NNE,31,0.0,7.0,75,0.00,,,0.00,meteohub,2013-02-11 12:23:00,
2013-02-11 04:28:00,44.1,40.3,30.30,NNE,31,0.0,7.0,75,0.00,,,0.00,meteohub,2013-02-11 12:28:00,
2013-02-11 04:34:00,44.1,40.3,30.30,NNE,31,0.0,7.0,75,0.00,,,0.00,meteohub,2013-02-11 12:34:00,
2013-02-11 04:39:00,44.1,40.3,30.30,NNE,31,0.0,2.0,75,0.00,,,0.00,meteohub,2013-02-11 12:39:00,
2013-02-11 04:44:00,44.1,40.3,30.30,NNE,31,0.0,2.0,75,0.00,,,0.00,meteohub,2013-02-11 12:44:00,
2013-02-11 04:49:00,43.9,40.3,30.30,NNE,31,0.0,0.0,75,0.00,,,0.00,meteohub,2013-02-11 12:49:00,
2013-02-11 04:55:00,43.9,40.3,30.30,NNE,31,0.0,0.0,75,0.00,,,0.00,meteohub,2013-02-11 12:55:00,
2013-02-11 05:00:00,43.9,40.3,30.30,NNE,31,0.0,0.0,75,0.00,,,0.00,meteohub,2013-02-11 13:00:00,
2013-02-11 05:05:00,43.9,40.3,30.31,NNE,31,0.0,0.0,75,0.00,,,0.00,meteohub,2013-02-11 13:05:00,
2013-02-11 05:10:00,43.9,40.3,30.31,NNE,31,0.0,0.0,75,0.00,,,0.00,meteohub,2013-02-11 13:10:00,
2013-02-11 05:15:00,43.9,40.3,30.31,NNE,31,0.0,0.0,75,0.00,,,0.00,meteohub,2013-02-11 13:15:00,
2013-02-11 05:21:00,43.7,40.3,30.30,NNE,31,0.0,1.0,75,0.00,,,0.00,meteohub,2013-02-11 13:21:00,
2013-02-11 05:26:00,43.7,40.1,30.31,NNE,31,0.0,1.0,75,0.00,,,0.00,meteohub,2013-02-11 13:26:00,
2013-02-11 05:31:00,43.7,40.1,30.31,NNE,31,0.0,1.0,75,0.00,,,0.00,meteohub,2013-02-11 13:31:00,
2013-02-11 05:37:00,43.5,40.1,30.31,NNE,31,0.0,1.0,75,0.00,,,0.00,meteohub,2013-02-11 13:37:00,
2013-02-11 05:42:00,43.5,40.1,30.31,NNE,31,2.0,2.0,74,0.00,,,0.00,meteohub,2013-02-11 13:42:00,
2013-02-11 05:47:00,43.5,40.1,30.32,NNE,31,0.0,4.0,74,0.00,,,0.00,meteohub,2013-02-11 13:47:00,
2013-02-11 05:53:00,43.5,40.1,30.32,NNE,31,0.0,4.0,74,0.00,,,0.00,meteohub,2013-02-11 13:53:00,
2013-02-11 05:58:00,43.5,40.1,30.32,NNE,31,0.0,4.0,74,0.00,,,0.00,meteohub,2013-02-11 13:58:00,
2013-02-11 06:03:00,43.5,40.1,30.32,NNE,31,0.0,4.0,74,0.00,,,0.00,meteohub,2013-02-11 14:03:00,
2013-02-11 06:09:00,43.5,40.1,30.32,NNE,31,0.0,1.0,74,0.00,,,0.00,meteohub,2013-02-11 14:09:00,
2013-02-11 06:14:00,43.5,39.7,30.32,NNE,31,0.0,1.0,74,0.00,,,0.00,meteohub,2013-02-11 14:14:00,
2013-02-11 06:19:00,43.5,40.1,30.32,NNE,31,0.0,0.0,74,0.00,,,0.00,meteohub,2013-02-11 14:19:00,
2013-02-11 06:24:00,43.5,40.1,30.32,NNE,31,0.0,0.0,74,0.00,,,0.00,meteohub,2013-02-11 14:24:00,
2013-02-11 06:30:00,43.5,40.1,30.32,NNE,31,0.0,0.0,74,0.00,,,0.00,meteohub,2013-02-11 14:30:00,
2013-02-11 06:36:00,43.3,40.1,30.32,NNE,31,0.0,0.0,74,0.00,,,0.00,meteohub,2013-02-11 14:36:00,
2013-02-11 06:42:00,43.3,40.1,30.32,NNE,31,0.0,0.0,74,0.00,,,0.00,meteohub,2013-02-11 14:42:00,
2013-02-11 06:47:00,43.3,39.7,30.32,NNE,31,0.0,0.0,74,0.00,,,0.00,meteohub,2013-02-11 14:47:00,
2013-02-11 06:52:00,43.3,40.1,30.32,NNE,31,0.0,0.0,74,0.00,,,0.00,meteohub,2013-02-11 14:52:00,
2013-02-11 06:57:00,43.3,39.7,30.32,NNE,31,0.0,0.0,74,0.00,,,0.00,meteohub,2013-02-11 14:57:00,
2013-02-11 07:02:00,43.3,39.7,30.32,NNE,31,0.0,0.0,74,0.00,,,0.00,meteohub,2013-02-11 15:02:00,
2013-02-11 07:08:00,43.3,39.7,30.32,NNE,31,0.0,0.0,74,0.00,,,0.00,meteohub,2013-02-11 15:08:00,
2013-02-11 07:13:00,43.3,39.7,30.32,NNE,31,0.0,0.0,74,0.00,,,0.00,meteohub,2013-02-11 15:13:00,
2013-02-11 07:18:00,43.3,39.7,30.32,NNE,31,0.0,1.0,73,0.00,,,0.00,meteohub,2013-02-11 15:18:00,
2013-02-11 07:23:00,43.2,39.7,30.32,NNE,31,0.0,1.0,73,0.00,,,0.00,meteohub,2013-02-11 15:23:00,
2013-02-11 07:28:00,43.2,39.7,30.33,NNE,31,0.0,1.0,73,0.00,,,0.00,meteohub,2013-02-11 15:28:00,
2013-02-11 07:33:00,42.8,39.7,30.32,NNE,31,0.0,1.0,74,0.00,,,0.00,meteohub,2013-02-11 15:33:00,
2013-02-11 07:39:00,42.6,39.7,30.32,NNE,31,0.0,0.0,74,0.00,,,0.00,meteohub,2013-02-11 15:39:00,
2013-02-11 07:44:00,42.4,39.6,30.33,NNE,31,0.0,0.0,74,0.00,,,0.00,meteohub,2013-02-11 15:44:00,
2013-02-11 07:49:00,42.3,39.6,30.33,NNE,31,0.0,1.0,73,0.00,,,0.00,meteohub,2013-02-11 15:49:00,
2013-02-11 07:54:00,42.3,39.6,30.33,NNE,31,0.0,1.0,73,0.00,,,0.00,meteohub,2013-02-11 15:54:00,
2013-02-11 07:59:00,42.4,39.6,30.33,NNE,31,0.0,1.0,72,0.00,,,0.00,meteohub,2013-02-11 15:59:00,
2013-02-11 08:04:00,42.6,39.6,30.33,NNE,31,0.0,1.0,72,0.00,,,0.00,meteohub,2013-02-11 16:04:00,
2013-02-11 08:10:00,42.6,39.6,30.33,NNE,31,0.0,1.0,72,0.00,,,0.00,meteohub,2013-02-11 16:10:00,
2013-02-11 08:15:00,43.0,39.6,30.33,NNE,31,0.0,4.0,71,0.00,,,0.00,meteohub,2013-02-11 16:15:00,
2013-02-11 08:20:00,43.0,39.6,30.33,NNE,31,0.0,4.0,71,0.00,,,0.00,meteohub,2013-02-11 16:20:00,
2013-02-11 08:25:00,43.2,39.6,30.33,NNE,31,0.0,4.0,71,0.00,,,0.00,meteohub,2013-02-11 16:25:00,
2013-02-11 08:31:00,43.3,39.6,30.33,NNE,31,0.0,4.0,71,0.00,,,0.00,meteohub,2013-02-11 16:31:00,
2013-02-11 08:36:00,43.5,39.6,30.33,NNE,31,3.0,3.0,71,0.00,,,0.00,meteohub,2013-02-11 16:36:00,
2013-02-11 08:41:00,43.9,39.7,30.33,NNE,31,0.0,3.0,70,0.00,,,0.00,meteohub,2013-02-11 16:41:00,
2013-02-11 08:46:00,44.1,39.7,30.33,NNE,31,0.0,4.0,70,0.00,,,0.00,meteohub,2013-02-11 16:46:00,
2013-02-11 08:51:00,44.1,39.7,30.33,NNE,31,0.0,4.0,71,0.00,,,0.00,meteohub,2013-02-11 16:51:00,
2013-02-11 08:56:00,44.2,39.7,30.33,NNE,31,0.0,4.0,71,0.00,,,0.00,meteohub,2013-02-11 16:56:00,
2013-02-11 09:02:00,44.6,39.7,30.33,NNE,31,0.0,4.0,71,0.00,,,0.00,meteohub,2013-02-11 17:02:00,
2013-02-11 09:07:00,44.8,39.7,30.34,NNE,32,0.0,4.0,71,0.00,,,0.00,meteohub,2013-02-11 17:07:00,
2013-02-11 09:12:00,45.0,39.7,30.34,NNE,32,1.0,5.0,71,0.00,,,0.00,meteohub,2013-02-11 17:12:00,
2013-02-11 09:17:00,45.1,39.7,30.33,NNE,33,0.0,6.0,71,0.00,,,0.00,meteohub,2013-02-11 17:17:00,
2013-02-11 09:22:00,45.3,39.7,30.34,NNE,33,0.0,6.0,71,0.00,,,0.00,meteohub,2013-02-11 17:22:00,
2013-02-11 09:27:00,45.7,39.7,30.34,NNE,33,0.0,5.0,71,0.00,,,0.00,meteohub,2013-02-11 17:27:00,
2013-02-11 09:33:00,45.9,39.7,30.34,NNE,33,0.0,5.0,72,0.00,,,0.00,meteohub,2013-02-11 17:33:00,
2013-02-11 09:38:00,46.0,39.9,30.34,NNE,33,0.0,3.0,72,0.00,,,0.00,meteohub,2013-02-11 17:38:00,
2013-02-11 09:43:00,46.2,39.9,30.35,NNE,33,2.0,3.0,72,0.00,,,0.00,meteohub,2013-02-11 17:43:00,
2013-02-11 09:48:00,46.6,39.9,30.34,NNE,33,0.0,2.0,72,0.00,,,0.00,meteohub,2013-02-11 17:48:00,
2013-02-11 09:53:00,46.6,39.9,30.34,NNE,33,0.0,2.0,73,0.00,,,0.00,meteohub,2013-02-11 17:53:00,
2013-02-11 09:58:00,46.9,39.9,30.35,NNE,33,0.0,2.0,73,0.00,,,0.00,meteohub,2013-02-11 17:58:00,
2013-02-11 10:03:00,47.3,40.3,30.35,NNE,33,0.0,2.0,73,0.00,,,0.00,meteohub,2013-02-11 18:03:00,
2013-02-11 10:08:00,47.8,40.3,30.35,NNE,33,0.0,5.0,73,0.00,,,0.00,meteohub,2013-02-11 18:08:00,
2013-02-11 10:13:00,48.0,40.3,30.35,NNE,33,0.0,5.0,73,0.00,,,0.00,meteohub,2013-02-11 18:13:00,
2013-02-11 10:18:00,48.4,40.3,30.35,NNE,33,1.0,5.0,73,0.00,,,0.00,meteohub,2013-02-11 18:18:00,
2013-02-11 10:23:00,48.6,40.3,30.35,NNE,32,0.0,5.0,73,0.00,,,0.00,meteohub,2013-02-11 18:23:00,
2013-02-11 10:28:00,48.6,40.3,30.35,NNE,32,0.0,3.0,74,0.00,,,0.00,meteohub,2013-02-11 18:28:00,
2013-02-11 10:34:00,48.6,40.3,30.35,North,355,4.0,4.0,73,0.00,,,0.00,meteohub,2013-02-11 18:34:00,
2013-02-11 10:39:00,48.6,40.3,30.36,NW,325,7.0,7.0,73,0.00,,,0.00,meteohub,2013-02-11 18:39:00,
2013-02-11 10:44:00,48.6,40.5,30.36,NW,324,2.0,9.0,73,0.00,,,0.00,meteohub,2013-02-11 18:44:00,
2013-02-11 10:49:00,48.6,40.5,30.36,NW,324,0.0,9.0,73,0.00,,,0.00,meteohub,2013-02-11 18:49:00,
2013-02-11 10:55:00,48.6,40.5,30.36,NW,323,2.0,10.0,73,0.00,,,0.00,meteohub,2013-02-11 18:55:00,
2013-02-11 11:00:00,48.4,40.5,30.36,NW,322,2.0,7.0,73,0.00,,,0.00,meteohub,2013-02-11 19:00:00,
2013-02-11 11:05:00,48.7,40.5,30.36,NW,321,4.0,7.0,74,0.00,,,0.00,meteohub,2013-02-11 19:05:00,
2013-02-11 11:10:00,48.7,40.6,30.36,WNW,302,1.0,8.0,74,0.00,,,0.00,meteohub,2013-02-11 19:10:00,
2013-02-11 11:15:00,48.9,40.6,30.36,WNW,288,4.0,12.0,74,0.00,,,0.00,meteohub,2013-02-11 19:15:00,
2013-02-11 11:21:00,49.3,40.6,30.36,WNW,286,5.0,12.0,74,0.00,,,0.00,meteohub,2013-02-11 19:21:00,
2013-02-11 11:26:00,49.8,40.6,30.35,WNW,288,0.0,12.0,73,0.00,,,0.00,meteohub,2013-02-11 19:26:00,
2013-02-11 11:31:00,50.4,40.8,30.35,WNW,289,4.0,12.0,73,0.00,,,0.00,meteohub,2013-02-11 19:31:00,
2013-02-11 11:36:00,50.9,40.8,30.35,WNW,287,2.0,9.0,73,0.00,,,0.00,meteohub,2013-02-11 19:36:00,
2013-02-11 11:41:00,51.1,40.8,30.35,WNW,288,0.0,9.0,73,0.00,,,0.00,meteohub,2013-02-11 19:41:00,
2013-02-11 11:46:00,51.3,40.8,30.35,WNW,286,2.0,8.0,73,0.00,,,0.00,meteohub,2013-02-11 19:46:00,
2013-02-11 11:52:00,51.6,41.0,30.35,WNW,282,5.0,8.0,73,0.00,,,0.00,meteohub,2013-02-11 19:52:00,
2013-02-11 11:57:00,51.6,41.0,30.35,WNW,282,4.0,8.0,72,0.00,,,0.00,meteohub,2013-02-11 19:57:00,
2013-02-11 12:02:00,51.8,41.0,30.35,West,281,5.0,8.0,72,0.00,,,0.00,meteohub,2013-02-11 20:02:00,
2013-02-11 12:07:00,52.2,41.0,30.35,West,281,1.0,8.0,72,0.00,,,0.00,meteohub,2013-02-11 20:07:00,
2013-02-11 12:12:00,52.2,41.4,30.34,WNW,287,5.0,7.0,72,0.00,,,0.00,meteohub,2013-02-11 20:12:00,
2013-02-11 12:18:00,52.2,41.4,30.34,WNW,285,1.0,9.0,73,0.00,,,0.00,meteohub,2013-02-11 20:18:00,
2013-02-11 12:23:00,52.0,41.4,30.34,WNW,284,1.0,9.0,72,0.00,,,0.00,meteohub,2013-02-11 20:23:00,
2013-02-11 12:28:00,51.6,41.5,30.34,WNW,285,5.0,9.0,73,0.00,,,0.00,meteohub,2013-02-11 20:28:00,
2013-02-11 12:33:00,51.4,41.5,30.34,WNW,287,2.0,9.0,73,0.00,,,0.00,meteohub,2013-02-11 20:33:00,
2013-02-11 12:38:00,51.1,41.5,30.34,WNW,287,4.0,8.0,73,0.00,,,0.00,meteohub,2013-02-11 20:38:00,
2013-02-11 12:43:00,50.7,41.5,30.34,WNW,287,5.0,8.0,73,0.00,,,0.00,meteohub,2013-02-11 20:43:00,
2013-02-11 12:48:00,50.5,41.5,30.34,WNW,288,1.0,8.0,73,0.00,,,0.00,meteohub,2013-02-11 20:48:00,
2013-02-11 12:53:00,50.4,41.5,30.34,WNW,287,4.0,8.0,74,0.00,,,0.00,meteohub,2013-02-11 20:53:00,
2013-02-11 12:58:00,50.4,41.7,30.34,WNW,286,6.0,7.0,74,0.00,,,0.00,meteohub,2013-02-11 20:58:00,
2013-02-11 13:03:00,50.2,41.7,30.34,WNW,285,2.0,7.0,74,0.00,,,0.00,meteohub,2013-02-11 21:03:00,
2013-02-11 13:08:00,50.2,41.7,30.34,WNW,285,1.0,7.0,74,0.00,,,0.00,meteohub,2013-02-11 21:08:00,
2013-02-11 13:13:00,50.2,41.7,30.34,West,281,4.0,7.0,74,0.00,,,0.00,meteohub,2013-02-11 21:13:00,
2013-02-11 13:18:00,49.6,41.7,30.34,West,274,4.0,6.0,74,0.00,,,0.00,meteohub,2013-02-11 21:18:00,
2013-02-11 13:24:00,49.3,41.7,30.34,West,274,5.0,6.0,74,0.00,,,0.00,meteohub,2013-02-11 21:24:00,
2013-02-11 13:29:00,49.3,41.7,30.33,West,273,2.0,8.0,74,0.00,,,0.00,meteohub,2013-02-11 21:29:00,
2013-02-11 13:34:00,48.9,41.7,30.34,West,271,2.0,8.0,74,0.00,,,0.00,meteohub,2013-02-11 21:34:00,
2013-02-11 13:38:00,45.7,41.4,30.34,SSW,205,0.0,4.0,62,0.00,,,0.03,meteohub,2013-02-11 21:38:00,
2013-02-11 13:39:00,48.7,41.7,30.33,West,263,7.0,8.0,74,0.00,,,0.00,meteohub,2013-02-11 21:39:00,
2013-02-11 13:40:00,45.9,41.4,30.34,SSW,205,0.0,4.0,62,0.00,,,0.03,meteohub,2013-02-11 21:40:00,
2013-02-11 13:41:00,45.7,41.4,30.34,SSW,205,2.0,4.0,62,0.00,,,0.03,meteohub,2013-02-11 21:41:00,
2013-02-11 13:42:00,45.9,41.4,30.34,SSW,205,2.0,4.0,62,0.00,,,0.03,meteohub,2013-02-11 21:42:00,
2013-02-11 13:43:00,45.7,41.4,30.34,SSW,205,2.0,5.0,62,0.00,,,0.03,meteohub,2013-02-11 21:43:00,
2013-02-11 13:44:00,48.4,41.7,30.33,West,259,2.0,10.0,74,0.00,,,0.00,meteohub,2013-02-11 21:44:00,
2013-02-11 13:45:00,45.7,41.4,30.34,SSW,205,0.0,5.0,62,0.00,,,0.03,meteohub,2013-02-11 21:45:00,
2013-02-11 13:46:00,45.7,41.4,30.34,SSW,205,1.0,5.0,62,0.00,,,0.03,meteohub,2013-02-11 21:46:00,
2013-02-11 13:47:00,45.7,41.4,30.34,SSW,205,2.0,6.0,62,0.00,,,0.03,meteohub,2013-02-11 21:47:00,
2013-02-11 13:48:00,45.7,41.4,30.34,SSW,205,0.0,6.0,62,0.00,,,0.03,meteohub,2013-02-11 21:48:00,
2013-02-11 13:49:00,48.0,41.9,30.33,WSW,257,5.0,10.0,73,0.00,,,0.00,meteohub,2013-02-11 21:49:00,
2013-02-11 13:50:00,45.7,41.4,30.34,SSW,205,2.0,6.0,62,0.00,,,0.03,meteohub,2013-02-11 21:50:00,
2013-02-11 13:51:00,45.7,41.4,30.34,SSW,205,0.0,6.0,62,0.00,,,0.03,meteohub,2013-02-11 21:51:00,
2013-02-11 13:52:00,45.9,41.4,30.34,SSW,205,0.0,6.0,62,0.00,,,0.03,meteohub,2013-02-11 21:52:00,
2013-02-11 13:53:00,45.9,41.4,30.34,SSW,205,0.0,6.0,62,0.00,,,0.03,meteohub,2013-02-11 21:53:00,
2013-02-11 13:54:00,48.0,41.9,30.33,WSW,254,6.0,10.0,72,0.00,,,0.00,meteohub,2013-02-11 21:54:00,
2013-02-11 13:55:00,45.9,41.4,30.34,SSW,205,2.0,6.0,62,0.00,,,0.03,meteohub,2013-02-11 21:55:00,
2013-02-11 13:56:00,45.9,41.4,30.34,SSW,205,1.0,6.0,62,0.00,,,0.03,meteohub,2013-02-11 21:56:00,
2013-02-11 13:57:00,45.9,41.4,30.34,SSW,205,0.0,6.0,62,0.00,,,0.03,meteohub,2013-02-11 21:57:00,
2013-02-11 13:58:00,45.9,41.4,30.34,SSW,205,4.0,6.0,62,0.00,,,0.03,meteohub,2013-02-11 21:58:00,
2013-02-11 13:59:00,45.9,41.4,30.34,SSW,205,1.0,6.0,62,0.00,,,0.03,meteohub,2013-02-11 21:59:00,
2013-02-11 14:00:00,47.7,41.9,30.33,WSW,241,2.0,8.0,72,0.00,,,0.00,meteohub,2013-02-11 22:00:00,
2013-02-11 14:01:00,45.9,41.4,30.34,SSW,205,2.0,6.0,62,0.00,,,0.03,meteohub,2013-02-11 22:01:00,
2013-02-11 14:02:00,45.9,41.4,30.34,SSW,205,3.0,6.0,62,0.00,,,0.03,meteohub,2013-02-11 22:02:00,
2013-02-11 14:03:00,45.9,41.4,30.34,SSW,205,2.0,6.0,62,0.00,,,0.03,meteohub,2013-02-11 22:03:00,
2013-02-11 14:04:00,45.7,41.4,30.34,SSW,205,0.0,4.0,62,0.00,,,0.03,meteohub,2013-02-11 22:04:00,
2013-02-11 14:05:00,47.7,41.9,30.33,WSW,244,7.0,10.0,71,0.00,,,0.00,meteohub,2013-02-11 22:05:00,
2013-02-11 14:06:00,45.9,41.4,30.34,SSW,205,0.0,4.0,62,0.00,,,0.03,meteohub,2013-02-11 22:06:00,
2013-02-11 14:07:00,45.7,41.4,30.34,SSW,205,0.0,4.0,62,0.00,,,0.03,meteohub,2013-02-11 22:07:00,
2013-02-11 14:08:00,45.9,41.4,30.34,SSW,205,0.0,4.0,62,0.00,,,0.03,meteohub,2013-02-11 22:08:00,
2013-02-11 14:09:00,45.9,41.4,30.34,SSW,205,1.0,4.0,62,0.00,,,0.03,meteohub,2013-02-11 22:09:00,
2013-02-11 14:10:00,47.5,41.9,30.33,WSW,239,7.0,10.0,71,0.00,,,0.00,meteohub,2013-02-11 22:10:00,
2013-02-11 14:12:00,45.7,41.4,30.34,SSW,205,0.0,4.0,62,0.00,,,0.04,meteohub,2013-02-11 22:12:00,
2013-02-11 14:13:00,45.7,41.4,30.34,SSW,205,3.0,5.0,62,0.01,,,0.04,meteohub,2013-02-11 22:13:00,
2013-02-11 14:14:00,45.9,41.4,30.34,SSW,205,1.0,5.0,62,0.01,,,0.04,meteohub,2013-02-11 22:14:00,
2013-02-11 14:15:00,47.3,41.9,30.33,WSW,240,5.0,10.0,70,0.00,,,0.00,meteohub,2013-02-11 22:15:00,
2013-02-11 14:16:00,45.7,41.4,30.34,SSW,205,1.0,5.0,62,0.01,,,0.04,meteohub,2013-02-11 22:16:00,
2013-02-11 14:17:00,45.9,41.4,30.34,SSW,205,0.0,5.0,62,0.01,,,0.04,meteohub,2013-02-11 22:17:00,
2013-02-11 14:19:00,45.7,41.4,30.34,SSW,205,6.0,6.0,62,0.01,,,0.04,meteohub,2013-02-11 22:19:00,
2013-02-11 14:20:00,47.1,41.9,30.33,WSW,248,4.0,10.0,69,0.00,,,0.00,meteohub,2013-02-11 22:20:00,
2013-02-11 14:21:00,45.7,41.4,30.34,SSW,205,2.0,5.0,62,0.01,,,0.04,meteohub,2013-02-11 22:21:00,
2013-02-11 14:22:00,45.7,41.4,30.34,SSW,205,2.0,5.0,62,0.01,,,0.04,meteohub,2013-02-11 22:22:00,
2013-02-11 14:23:00,45.9,41.4,30.34,SSW,205,0.0,7.0,62,0.01,,,0.04,meteohub,2013-02-11 22:23:00,
2013-02-11 14:24:00,45.9,41.4,30.34,SSW,205,2.0,7.0,62,0.01,,,0.04,meteohub,2013-02-11 22:24:00,
2013-02-11 14:26:00,47.1,41.9,30.33,SW,232,4.0,10.0,69,0.00,,,0.00,meteohub,2013-02-11 22:26:00,
2013-02-11 14:27:00,45.9,41.4,30.34,SSW,205,0.0,7.0,62,0.01,,,0.04,meteohub,2013-02-11 22:27:00,
2013-02-11 14:31:00,46.9,41.9,30.33,SW,234,6.0,10.0,68,0.00,,,0.00,meteohub,2013-02-11 22:31:00,
2013-02-11 14:36:00,46.9,41.9,30.33,SW,229,6.0,12.0,67,0.00,,,0.00,meteohub,2013-02-11 22:36:00,
2013-02-11 14:41:00,46.9,41.9,30.33,SW,229,6.0,12.0,66,0.00,,,0.00,meteohub,2013-02-11 22:41:00,
2013-02-11 14:47:00,46.9,41.9,30.33,WSW,240,6.0,12.0,66,0.00,,,0.00,meteohub,2013-02-11 22:47:00,
2013-02-11 14:52:00,46.9,41.9,30.33,WSW,238,8.0,11.0,66,0.00,,,0.00,meteohub,2013-02-11 22:52:00,
2013-02-11 14:57:00,46.9,41.9,30.33,SW,233,5.0,12.0,65,0.00,,,0.00,meteohub,2013-02-11 22:57:00,
2013-02-11 15:02:00,46.9,41.9,30.33,WSW,243,6.0,12.0,65,0.00,,,0.00,meteohub,2013-02-11 23:02:00,
2013-02-11 15:07:00,46.9,41.9,30.33,SW,232,3.0,12.0,65,0.00,,,0.00,meteohub,2013-02-11 23:07:00,
2013-02-11 15:13:00,46.9,41.9,30.33,SW,229,5.0,12.0,65,0.00,,,0.00,meteohub,2013-02-11 23:13:00,
2013-02-11 15:18:00,47.1,41.9,30.33,WSW,237,5.0,12.0,64,0.00,,,0.00,meteohub,2013-02-11 23:18:00,
2013-02-11 15:23:00,47.1,41.9,30.33,SW,234,7.0,12.0,64,0.00,,,0.00,meteohub,2013-02-11 23:23:00,
2013-02-11 15:28:00,46.9,41.9,30.33,SW,227,6.0,12.0,64,0.00,,,0.00,meteohub,2013-02-11 23:28:00,
2013-02-11 15:33:00,46.9,41.9,30.33,SW,225,4.0,12.0,64,0.00,,,0.00,meteohub,2013-02-11 23:33:00,
2013-02-11 15:38:00,46.9,41.9,30.33,SW,224,6.0,12.0,64,0.00,,,0.00,meteohub,2013-02-11 23:38:00,
2013-02-11 15:43:00,46.9,41.9,30.33,WSW,238,4.0,12.0,64,0.00,,,0.00,meteohub,2013-02-11 23:43:00,
2013-02-11 15:48:00,46.8,41.9,30.33,SW,227,4.0,12.0,64,0.00,,,0.00,meteohub,2013-02-11 23:48:00,
2013-02-11 15:53:00,46.8,41.9,30.33,SW,223,5.0,12.0,64,0.00,,,0.00,meteohub,2013-02-11 23:53:00,
2013-02-11 15:58:00,46.8,41.9,30.33,SSW,213,5.0,12.0,64,0.00,,,0.00,meteohub,2013-02-11 23:58:00,
2013-02-11 16:03:00,46.8,41.9,30.33,SSW,213,4.0,12.0,64,0.00,,,0.00,meteohub,2013-02-12 00:03:00,
2013-02-11 16:08:00,46.6,41.9,30.33,SW,214,4.0,9.0,64,0.00,,,0.00,meteohub,2013-02-12 00:08:00,
2013-02-11 16:13:00,46.6,41.9,30.33,SW,215,5.0,9.0,64,0.00,,,0.00,meteohub,2013-02-12 00:13:00,
2013-02-11 16:18:00,46.6,41.9,30.33,SW,217,5.0,10.0,63,0.00,,,0.00,meteohub,2013-02-12 00:18:00,
2013-02-11 16:23:00,46.6,41.9,30.33,SW,221,8.0,10.0,63,0.00,,,0.00,meteohub,2013-02-12 00:23:00,
2013-02-11 16:28:00,46.6,41.9,30.33,South,184,5.0,15.0,63,0.00,,,0.00,meteohub,2013-02-12 00:28:00,
2013-02-11 16:34:00,46.4,41.9,30.33,SSW,213,8.0,15.0,63,0.00,,,0.00,meteohub,2013-02-12 00:34:00,
2013-02-11 16:39:00,46.2,41.7,30.33,SSW,201,4.0,15.0,63,0.00,,,0.00,meteohub,2013-02-12 00:39:00,
2013-02-11 16:44:00,46.2,41.7,30.33,SSW,210,5.0,15.0,63,0.00,,,0.00,meteohub,2013-02-12 00:44:00,
2013-02-11 16:49:00,46.2,41.7,30.33,SSW,204,8.0,13.0,63,0.00,,,0.00,meteohub,2013-02-12 00:49:00,
2013-02-11 16:54:00,46.2,41.7,30.34,SSW,211,4.0,13.0,63,0.00,,,0.00,meteohub,2013-02-12 00:54:00,
2013-02-11 17:00:00,46.2,41.7,30.33,SSW,205,6.0,9.0,63,0.00,,,0.00,meteohub,2013-02-12 01:00:00,
2013-02-11 17:05:00,46.2,41.7,30.33,SSW,207,5.0,9.0,63,0.00,,,0.00,meteohub,2013-02-12 01:05:00,
2013-02-11 17:10:00,46.2,41.7,30.33,SSW,207,4.0,10.0,63,0.00,,,0.00,meteohub,2013-02-12 01:10:00,
2013-02-11 17:15:00,46.4,41.7,30.33,SSW,207,7.0,10.0,63,0.00,,,0.00,meteohub,2013-02-12 01:15:00,
2013-02-11 17:20:00,46.6,41.7,30.33,SSW,207,3.0,10.0,63,0.00,,,0.00,meteohub,2013-02-12 01:20:00,
2013-02-11 17:26:00,46.4,41.7,30.33,SSW,207,3.0,8.0,63,0.00,,,0.00,meteohub,2013-02-12 01:26:00,
2013-02-11 17:31:00,46.2,41.5,30.33,SSW,207,0.0,8.0,63,0.00,,,0.00,meteohub,2013-02-12 01:31:00,
2013-02-11 17:36:00,46.2,41.5,30.33,SSW,207,1.0,7.0,63,0.00,,,0.00,meteohub,2013-02-12 01:36:00,
2013-02-11 17:41:00,46.0,41.5,30.33,SSW,207,3.0,6.0,63,0.00,,,0.00,meteohub,2013-02-12 01:41:00,
2013-02-11 17:46:00,46.0,41.5,30.33,SSW,207,2.0,6.0,63,0.00,,,0.00,meteohub,2013-02-12 01:46:00,
2013-02-11 17:52:00,46.0,41.5,30.33,SSW,207,0.0,5.0,63,0.00,,,0.00,meteohub,2013-02-12 01:52:00,
2013-02-11 17:57:00,46.0,41.5,30.33,SSW,207,1.0,5.0,63,0.00,,,0.00,meteohub,2013-02-12 01:57:00,
2013-02-11 18:02:00,46.0,41.5,30.34,SSW,207,2.0,5.0,63,0.00,,,0.00,meteohub,2013-02-12 02:02:00,
2013-02-11 18:07:00,46.0,41.5,30.34,SSW,207,1.0,6.0,63,0.00,,,0.01,meteohub,2013-02-12 02:07:00,
2013-02-11 18:12:00,46.0,41.5,30.33,SSW,207,0.0,6.0,63,0.01,,,0.01,meteohub,2013-02-12 02:12:00,
2013-02-11 18:17:00,46.0,41.5,30.34,SSW,207,4.0,6.0,63,0.01,,,0.01,meteohub,2013-02-12 02:17:00,
2013-02-11 18:23:00,46.0,41.5,30.34,SSW,207,1.0,5.0,63,0.01,,,0.01,meteohub,2013-02-12 02:23:00,
2013-02-11 18:28:00,46.0,41.5,30.33,SSW,207,0.0,5.0,63,0.01,,,0.01,meteohub,2013-02-12 02:28:00,
2013-02-11 18:33:00,46.0,41.5,30.33,SSW,207,0.0,5.0,63,0.01,,,0.01,meteohub,2013-02-12 02:33:00,
2013-02-11 18:38:00,46.0,41.4,30.33,SSW,207,0.0,5.0,63,0.01,,,0.01,meteohub,2013-02-12 02:38:00,
2013-02-11 18:43:00,46.0,41.4,30.34,SSW,207,1.0,5.0,63,0.01,,,0.01,meteohub,2013-02-12 02:43:00,
2013-02-11 18:48:00,45.9,41.4,30.34,SSW,207,0.0,5.0,63,0.02,,,0.02,meteohub,2013-02-12 02:48:00,
2013-02-11 18:53:00,45.9,41.4,30.34,SSW,207,0.0,5.0,63,0.02,,,0.02,meteohub,2013-02-12 02:53:00,
2013-02-11 18:58:00,45.9,41.4,30.34,SSW,207,2.0,5.0,63,0.02,,,0.02,meteohub,2013-02-12 02:58:00,
2013-02-11 19:03:00,45.9,41.4,30.34,SSW,207,1.0,5.0,63,0.02,,,0.02,meteohub,2013-02-12 03:03:00,
2013-02-11 19:08:00,45.9,41.4,30.34,SSW,207,3.0,5.0,63,0.01,,,0.02,meteohub,2013-02-12 03:08:00,
2013-02-11 19:13:00,45.9,41.4,30.34,SSW,206,0.0,5.0,63,0.01,,,0.02,meteohub,2013-02-12 03:13:00,
2013-02-11 19:18:00,45.9,41.4,30.34,SSW,206,2.0,5.0,63,0.01,,,0.02,meteohub,2013-02-12 03:18:00,
2013-02-11 19:23:00,45.9,41.4,30.33,SSW,205,3.0,5.0,63,0.01,,,0.02,meteohub,2013-02-12 03:23:00,
2013-02-11 19:28:00,45.9,41.4,30.33,SSW,206,3.0,5.0,63,0.01,,,0.02,meteohub,2013-02-12 03:28:00,
2013-02-11 19:33:00,45.9,41.4,30.33,SSW,205,1.0,5.0,63,0.01,,,0.03,meteohub,2013-02-12 03:33:00,
2013-02-11 19:38:00,45.9,41.4,30.34,SSW,205,2.0,6.0,63,0.02,,,0.03,meteohub,2013-02-12 03:38:00,
2013-02-11 19:43:00,45.9,41.4,30.34,SSW,205,0.0,6.0,63,0.02,,,0.03,meteohub,2013-02-12 03:43:00,
2013-02-11 19:48:00,45.9,41.4,30.34,SSW,205,2.0,5.0,63,0.01,,,0.03,meteohub,2013-02-12 03:48:00,
2013-02-11 19:53:00,45.9,41.4,30.34,SSW,205,1.0,5.0,63,0.01,,,0.03,meteohub,2013-02-12 03:53:00,
2013-02-11 19:58:00,45.7,41.4,30.34,SSW,205,3.0,5.0,63,0.01,,,0.03,meteohub,2013-02-12 03:58:00,
2013-02-11 20:03:00,45.7,41.4,30.34,SSW,205,4.0,5.0,63,0.01,,,0.03,meteohub,2013-02-12 04:03:00,
2013-02-11 20:08:00,45.7,41.4,30.34,SSW,205,2.0,7.0,63,0.01,,,0.03,meteohub,2013-02-12 04:08:00,
2013-02-11 20:13:00,45.7,41.4,30.34,SSW,205,1.0,7.0,63,0.01,,,0.03,meteohub,2013-02-12 04:13:00,
2013-02-11 20:18:00,45.7,41.4,30.34,SSW,205,0.0,5.0,63,0.01,,,0.03,meteohub,2013-02-12 04:18:00,
2013-02-11 20:23:00,45.9,41.4,30.34,SSW,205,2.0,5.0,63,0.01,,,0.03,meteohub,2013-02-12 04:23:00,
2013-02-11 20:28:00,45.7,41.4,30.34,SSW,205,0.0,5.0,63,0.01,,,0.03,meteohub,2013-02-12 04:28:00,
2013-02-11 20:33:00,45.7,41.4,30.34,SSW,205,2.0,5.0,63,0.01,,,0.03,meteohub,2013-02-12 04:33:00,
2013-02-11 20:38:00,45.7,41.4,30.34,SSW,205,0.0,6.0,63,0.00,,,0.03,meteohub,2013-02-12 04:38:00,
2013-02-11 20:43:00,45.9,41.4,30.34,SSW,205,0.0,6.0,62,0.00,,,0.03,meteohub,2013-02-12 04:43:00,
2013-02-11 20:48:00,45.7,41.4,30.34,SSW,205,3.0,6.0,62,0.00,,,0.03,meteohub,2013-02-12 04:48:00,
2013-02-11 20:53:00,45.7,41.4,30.34,SSW,205,0.0,6.0,62,0.00,,,0.03,meteohub,2013-02-12 04:53:00,
2013-02-11 20:58:00,45.7,41.4,30.34,SSW,205,1.0,4.0,62,0.00,,,0.03,meteohub,2013-02-12 04:58:00,
2013-02-11 21:32:00,45.9,41.4,30.34,SSW,205,0.0,4.0,62,0.00,,,0.04,meteohub,2013-02-12 05:32:00,
2013-02-11 21:37:00,45.7,41.4,30.34,SSW,205,3.0,5.0,62,0.01,,,0.04,meteohub,2013-02-12 05:37:00,
2013-02-11 21:43:00,45.7,41.4,30.34,SSW,205,2.0,5.0,62,0.01,,,0.04,meteohub,2013-02-12 05:43:00,
2013-02-11 21:48:00,45.9,41.4,30.34,SSW,205,0.0,7.0,62,0.01,,,0.04,meteohub,2013-02-12 05:48:00,
2013-02-11 21:53:00,45.9,41.4,30.34,SSW,205,4.0,7.0,62,0.01,,,0.04,meteohub,2013-02-12 05:53:00,
2013-02-11 21:58:00,45.9,41.2,30.34,SSW,205,0.0,5.0,62,0.01,,,0.04,meteohub,2013-02-12 05:58:00,
2013-02-11 22:03:00,45.9,41.2,30.35,SSW,205,2.0,5.0,62,0.01,,,0.04,meteohub,2013-02-12 06:03:00,
2013-02-11 22:08:00,45.9,41.2,30.35,SSW,205,0.0,5.0,62,0.01,,,0.04,meteohub,2013-02-12 06:08:00,
2013-02-11 22:14:00,46.0,40.8,30.35,SSW,205,2.0,5.0,62,0.01,,,0.04,meteohub,2013-02-12 06:14:00,
2013-02-11 22:19:00,45.9,41.2,30.35,SSW,205,0.0,4.0,62,0.01,,,0.04,meteohub,2013-02-12 06:19:00,
2013-02-11 22:24:00,45.9,41.2,30.35,SSW,205,0.0,4.0,62,0.01,,,0.04,meteohub,2013-02-12 06:24:00,
2013-02-11 22:29:00,45.9,41.2,30.35,SSW,205,3.0,3.0,62,0.01,,,0.04,meteohub,2013-02-12 06:29:00,
2013-02-11 22:34:00,45.9,40.8,30.35,SSW,205,0.0,3.0,62,0.00,,,0.04,meteohub,2013-02-12 06:34:00,
2013-02-11 22:39:00,45.9,40.8,30.35,SSW,205,0.0,3.0,62,0.00,,,0.04,meteohub,2013-02-12 06:39:00,
2013-02-11 22:45:00,45.9,40.8,30.35,SSW,205,0.0,3.0,62,0.00,,,0.04,meteohub,2013-02-12 06:45:00,
2013-02-11 22:50:00,45.9,40.8,30.35,SSW,205,0.0,3.0,62,0.00,,,0.04,meteohub,2013-02-12 06:50:00,
2013-02-11 22:55:00,45.9,40.8,30.35,SSW,205,0.0,3.0,62,0.00,,,0.04,meteohub,2013-02-12 06:55:00,
2013-02-11 23:00:00,45.9,41.2,30.35,SSW,205,0.0,4.0,62,0.01,,,0.04,meteohub,2013-02-12 07:00:00,
2013-02-11 23:05:00,45.9,41.2,30.35,SSW,205,1.0,4.0,62,0.01,,,0.05,meteohub,2013-02-12 07:05:00,
2013-02-11 23:10:00,45.9,40.8,30.35,SSW,205,0.0,4.0,62,0.01,,,0.05,meteohub,2013-02-12 07:10:00,
2013-02-11 23:16:00,45.9,41.2,30.35,SSW,205,0.0,3.0,62,0.01,,,0.05,meteohub,2013-02-12 07:16:00,
2013-02-11 23:21:00,45.9,40.8,30.35,SSW,205,0.0,3.0,62,0.01,,,0.05,meteohub,2013-02-12 07:21:00,
2013-02-11 23:26:00,46.0,40.8,30.35,SSW,205,0.0,3.0,62,0.01,,,0.05,meteohub,2013-02-12 07:26:00,
2013-02-11 23:31:00,45.9,40.8,30.35,SSW,205,0.0,3.0,62,0.01,,,0.05,meteohub,2013-02-12 07:31:00,
2013-02-11 23:36:00,45.9,40.8,30.35,SSW,205,0.0,2.0,62,0.01,,,0.00,meteohub,2013-02-12 07:36:00,
2013-02-11 23:41:00,45.9,40.8,30.35,SSW,205,0.0,2.0,62,0.01,,,0.00,meteohub,2013-02-12 07:41:00,
2013-02-11 23:46:00,46.0,40.8,30.35,SSW,205,0.0,2.0,62,0.01,,,0.00,meteohub,2013-02-12 07:46:00,
2013-02-11 23:52:00,46.0,40.8,30.35,SSW,205,0.0,2.0,62,0.01,,,0.00,meteohub,2013-02-12 07:52:00,
2013-02-11 23:57:00,46.0,40.8,30.35,SSW,205,1.0,4.0,62,0.00,,,0.00,meteohub,2013-02-12 07:57:00,